Anchorage Merrill, AK

3:44 AM AKDT on August 19, 2017 (GMT -0800)
Merrill

Weather History for PAMR - October, 2012

Change the Weather History Date:

Sunday, October 14, 2012

  Actual Average Record
Temperature  
Mean Temperature 34 °F -  
Max Temperature 39 °F 39 °F 55 °F (2013)
Min Temperature 30 °F 27 °F 19 °F (1996)
Degree Days  
Heating Degree Days 30    
Moisture  
Dew Point 30 °F    
Average Humidity 83    
Maximum Humidity 89    
Minimum Humidity 67    
Precipitation  
Precipitation 0.01 in - - ()
Snow  
Snow 0.00 in - - ()
Snow Depth 1.00 in    
Sea Level Pressure  
Sea Level Pressure 29.07 in    
Wind  
Wind Speed 5 mph (NNE)    
Max Wind Speed 8 mph    
Max Gust Speed -    
Visibility 10 miles    
Events Rain    
Averages and records for this station are not official NWS values.
T = Trace of Precipitation, MM = Missing Value Source: NWS Daily Summary

Daily Weather History Graph

Daily Weather History Graph

Search for Another Location

Airport or City:

Trip Planner

Search our weather history database for the weather conditions in past years. The results will help you decide how hot, cold, wet, or windy it might be!

Date:

Astronomy

Oct. 14, 2012 Rise Set
Actual Time 8:40 AM AKDT 6:48 PM AKDT
Civil Twilight 7:57 AM AKDT 7:32 PM AKDT
Nautical Twilight 7:07 AM AKDT 8:21 PM AKDT
Astronomical Twilight 6:16 AM AKDT 9:12 PM AKDT
Moon 7:51 AM AKDT (10/14) 6:06 PM AKDT (10/14)
Length of Visible Light 11h 35m
Length of Day
10h 07m
Waning Crescent, 1% of the Moon is Illuminated
Oct 14
Waning Crescent
Oct 15
New
Oct 21
First Quarter
Oct 29
Full
Nov 6
Last Quarter

Hourly Weather History & Observations

Time (AKDT) Temp. Windchill Dew Point Humidity Pressure Visibility Wind Dir Wind Speed Gust Speed Precip Events Conditions
12:53 AM 33.1 °F 28.7 °F 30.0 °F 89% 29.20 in 10.0 mi North 4.6 mph - N/A   Overcast
1:53 AM 33.1 °F 26.9 °F 30.0 °F 89% 29.18 in 10.0 mi North 6.9 mph - N/A   Overcast
2:37 AM 33.8 °F 27.0 °F 30.2 °F 87% 29.16 in 10.0 mi North 8.1 mph - N/A   Overcast
2:53 AM 33.1 °F 26.1 °F 30.0 °F 89% 29.17 in 10.0 mi North 8.1 mph - N/A   Overcast
3:03 AM 33.8 °F 28.6 °F 30.2 °F 87% 29.16 in 10.0 mi North 5.8 mph - N/A   Mostly Cloudy
3:34 AM 33.8 °F 27.7 °F 30.2 °F 87% 29.15 in 10.0 mi North 6.9 mph - N/A   Overcast
3:42 AM 33.8 °F 29.6 °F 30.2 °F 87% 29.15 in 10.0 mi North 4.6 mph - N/A   Mostly Cloudy
3:53 AM 33.1 °F 26.9 °F 30.0 °F 89% 29.16 in 10.0 mi North 6.9 mph - N/A   Mostly Cloudy
4:02 AM 33.8 °F 27.7 °F 30.2 °F 87% 29.14 in 10.0 mi North 6.9 mph - N/A   Mostly Cloudy
4:44 AM 33.8 °F 29.6 °F 30.2 °F 87% 29.13 in 10.0 mi NNE 4.6 mph - N/A   Mostly Cloudy
4:53 AM 34.0 °F 31.0 °F 30.0 °F 85% 29.14 in 10.0 mi NNE 3.5 mph - N/A   Overcast
5:22 AM 32.0 °F - 28.4 °F 87% 29.12 in 10.0 mi Calm Calm - N/A   Mostly Cloudy
5:53 AM 32.0 °F 27.5 °F 28.9 °F 88% 29.12 in 10.0 mi NNE 4.6 mph - N/A   Mostly Cloudy
6:21 AM 32.0 °F 27.5 °F 28.4 °F 87% 29.11 in 10.0 mi NE 4.6 mph - N/A   Mostly Cloudy
6:53 AM 32.0 °F - 28.9 °F 88% 29.11 in 10.0 mi Calm Calm - N/A   Scattered Clouds
7:53 AM 30.9 °F 26.2 °F 28.0 °F 89% 29.10 in 10.0 mi ENE 4.6 mph - N/A   Partly Cloudy
8:53 AM 30.9 °F - 28.0 °F 89% 29.09 in 10.0 mi Calm Calm - N/A   Mostly Cloudy
9:53 AM 32.0 °F - 28.9 °F 88% 29.08 in 10.0 mi Calm Calm - N/A   Overcast
10:53 AM 34.0 °F 31.0 °F 30.0 °F 85% 29.07 in 10.0 mi NE 3.5 mph - N/A   Scattered Clouds
11:53 AM 35.1 °F 31.0 °F 30.0 °F 82% 29.06 in 10.0 mi NE 4.6 mph - N/A   Scattered Clouds
12:53 PM 37.0 °F 31.6 °F 28.9 °F 73% 29.04 in 10.0 mi NNE 6.9 mph - N/A   Overcast
1:53 PM 37.0 °F 31.6 °F 28.9 °F 73% 29.02 in 10.0 mi NE 6.9 mph - N/A   Scattered Clouds
2:53 PM 39.0 °F 34.0 °F 28.9 °F 67% 29.01 in 10.0 mi NNE 6.9 mph - N/A   Clear
3:53 PM 39.0 °F 34.8 °F 30.0 °F 70% 28.99 in 10.0 mi NE 5.8 mph - N/A   Clear
4:53 PM 39.9 °F 36.7 °F 30.9 °F 70% 28.97 in 10.0 mi NNE 4.6 mph - N/A   Clear
5:53 PM 39.0 °F 34.8 °F 32.0 °F 76% 28.96 in 10.0 mi NNE 5.8 mph - N/A   Clear
6:53 PM 37.0 °F 34.5 °F 30.9 °F 79% 28.94 in 10.0 mi East 3.5 mph - N/A   Clear
7:53 PM 36.0 °F - 30.9 °F 82% 28.94 in 10.0 mi Calm Calm - N/A   Clear
8:53 PM 37.9 °F - 32.0 °F 79% 28.93 in 10.0 mi Calm Calm - N/A   Overcast
9:53 PM 37.0 °F - 32.0 °F 82% 28.92 in 10.0 mi Calm Calm - N/A   Overcast
10:53 PM 37.0 °F - 33.1 °F 86% 28.92 in 10.0 mi Calm Calm - 0.00 in Rain Light Rain
11:53 PM 37.9 °F - 34.0 °F 86% 28.92 in 10.0 mi Calm Calm - 0.01 in Rain Light Rain